Reno, NV

9:59 PM PDT on August 25, 2016 (GMT -0700)
Reno - Stead

Weather History for KRTS - November, 2012

Change the Weather History Date:

Thursday, November 29, 2012

  Actual Average (KRNO) Record (KRNO)
Temperature  
Mean Temperature 46 °F 38 °F  
Max Temperature 53 °F 49 °F 68 °F (1940)
Min Temperature 42 °F 27 °F 4 °F (2004)
Degree Days  
Heating Degree Days 18 27  
Month to date heating degree days 641  
Since 1 July heating degree days 1077  
Cooling Degree Days 0 0  
Month to date cooling degree days 0  
Year to date cooling degree days 839  
Moisture  
Dew Point 31 °F    
Average Humidity 54    
Maximum Humidity 70    
Minimum Humidity 28    
Precipitation  
Precipitation 0.00 in 0.03 in 0.32 in (2000)
Month to date precipitation 0.79  
Year to date precipitation 6.34  
Snow  
Snow - 0.10 in 5.40 in (1922)
Month to date snowfall 3.0  
Since 1 July snowfall 3.4  
Since 1 September snowfall 3.4  
Snow Depth -    
Sea Level Pressure  
Sea Level Pressure 30.01 in    
Wind  
Wind Speed 13 mph ()    
Max Wind Speed 26 mph    
Max Gust Speed 43 mph    
Visibility 10.0 miles    
Events      
T = Trace of Precipitation, MM = Missing Value Source: Averaged Metar Reports

Daily Weather History Graph

Daily Weather History Graph

Search for Another Location

Airport or City:

Trip Planner

Search our weather history database for the weather conditions in past years. The results will help you decide how hot, cold, wet, or windy it might be!

Date:

Astronomy

Nov. 29, 2012 Rise Set
Actual Time 6:59 AM PST 4:36 PM PST
Civil Twilight 6:30 AM PST 5:05 PM PST
Nautical Twilight 5:56 AM PST 5:39 PM PST
Astronomical Twilight 5:24 AM PST 6:11 PM PST
Moon 5:43 PM PST (11/29) 7:50 AM PST (11/29)
Length of Visible Light 10h 35m
Length of Day
9h 36m
Full, 99% of the Moon is Illuminated
Nov 29
Full
Dec 6
Last Quarter
Dec 13
New
Dec 19
First Quarter
Dec 28
Full

Hourly Weather History & Observations

Time (PST) Temp. Windchill Dew Point Humidity Pressure Visibility Wind Dir Wind Speed Gust Speed Precip Events Conditions
12:15 AM 46.4 °F 41.5 °F 32.0 °F 57% 30.03 in 10.0 mi SSW 10.4 mph 16.1 mph N/A   Overcast
12:35 AM 46.4 °F 40.7 °F 32.0 °F 57% 30.01 in 10.0 mi SSW 12.7 mph 25.3 mph N/A   Overcast
12:55 AM 46.4 °F 39.2 °F 32.0 °F 57% 30.01 in 10.0 mi SW 18.4 mph 21.9 mph N/A   Mostly Cloudy
1:15 AM 48.2 °F - 32.0 °F 54% 30.00 in 10.0 mi SW 15.0 mph 23.0 mph N/A   Mostly Cloudy
1:35 AM 48.2 °F - 32.0 °F 54% 30.00 in 10.0 mi SSW 21.9 mph 31.1 mph N/A   Mostly Cloudy
1:55 AM 48.2 °F - 32.0 °F 54% 30.00 in 10.0 mi SW 13.8 mph 23.0 mph N/A   Mostly Cloudy
2:15 AM 48.2 °F - 35.6 °F 62% 30.00 in 10.0 mi SSW 26.5 mph 31.1 mph N/A   Overcast
2:35 AM 48.2 °F - 33.8 °F 58% 30.01 in 10.0 mi SSW 19.6 mph 32.2 mph N/A   Overcast
2:55 AM 48.2 °F - 32.0 °F 54% 30.01 in 10.0 mi SW 17.3 mph 32.2 mph N/A   Overcast
3:15 AM 46.4 °F 39.5 °F 32.0 °F 57% 30.01 in 10.0 mi SW 17.3 mph 23.0 mph N/A   Mostly Cloudy
3:35 AM 46.4 °F 39.8 °F 32.0 °F 57% 30.01 in 10.0 mi SW 16.1 mph 27.6 mph N/A   Partly Cloudy
3:55 AM 46.4 °F 42.9 °F 32.0 °F 57% 30.00 in 10.0 mi SSW 6.9 mph - N/A   Clear
4:15 AM 44.6 °F 40.2 °F 32.0 °F 61% 30.00 in 10.0 mi WSW 8.1 mph - N/A   Scattered Clouds
4:35 AM 44.6 °F 37.4 °F 32.0 °F 61% 30.00 in 10.0 mi SW 16.1 mph 20.7 mph N/A   Mostly Cloudy
4:55 AM 44.6 °F 40.2 °F 33.8 °F 66% 30.00 in 10.0 mi WSW 8.1 mph 16.1 mph N/A   Mostly Cloudy
5:15 AM 42.8 °F 40.1 °F 33.8 °F 70% 30.00 in 10.0 mi West 4.6 mph - N/A   Mostly Cloudy
5:35 AM 44.6 °F 40.7 °F 33.8 °F 66% 30.00 in 10.0 mi SSW 6.9 mph - N/A   Scattered Clouds
5:55 AM 44.6 °F 38.8 °F 33.8 °F 66% 30.00 in 10.0 mi WSW 11.5 mph 19.6 mph N/A   Partly Cloudy
6:15 AM 44.6 °F 40.7 °F 33.8 °F 66% 30.00 in 10.0 mi South 6.9 mph - N/A   Clear
6:35 AM 44.6 °F 40.2 °F 32.0 °F 61% 30.00 in 10.0 mi SSW 8.1 mph - N/A   Scattered Clouds
6:55 AM 46.4 °F 40.4 °F 33.8 °F 62% 30.00 in 10.0 mi SW 13.8 mph 17.3 mph N/A   Overcast
7:10 AM 46.4 °F 42.4 °F 33.8 °F 62% 30.01 in 10.0 mi SSW 8.1 mph 24.2 mph N/A   Overcast
7:35 AM 46.4 °F 39.5 °F 32.0 °F 57% 29.99 in 10.0 mi SSW 17.3 mph 27.6 mph N/A   Partly Cloudy
7:55 AM 48.2 °F - 32.0 °F 54% 30.01 in 10.0 mi SSW 11.5 mph - N/A   Scattered Clouds
8:15 AM 48.2 °F - 30.2 °F 50% 30.01 in 10.0 mi SW 6.9 mph 23.0 mph N/A   Overcast
8:35 AM 48.2 °F - 30.2 °F 50% 30.01 in 10.0 mi SW 15.0 mph 21.9 mph N/A   Mostly Cloudy
8:55 AM 48.2 °F - 32.0 °F 54% 30.01 in 10.0 mi SSW 11.5 mph 24.2 mph N/A   Partly Cloudy
9:15 AM 48.2 °F - 30.2 °F 50% 30.02 in 10.0 mi SW 13.8 mph 20.7 mph N/A   Clear
9:35 AM 48.2 °F - 32.0 °F 54% 30.02 in 10.0 mi Calm Calm - N/A   Clear
9:55 AM 50.0 °F - 26.6 °F 40% 30.02 in 10.0 mi SSW 8.1 mph - N/A   Clear
10:15 AM 50.0 °F - 23.0 °F 35% 30.02 in 10.0 mi SSW 11.5 mph 25.3 mph N/A   Clear
10:35 AM 50.0 °F - 23.0 °F 35% 30.02 in 10.0 mi SW 19.6 mph 42.6 mph N/A   Clear
10:55 AM 50.0 °F - 23.0 °F 35% 30.00 in 10.0 mi SW 26.5 mph 36.8 mph N/A   Clear
11:15 AM 51.8 °F - 23.0 °F 33% 29.99 in 10.0 mi SSW 21.9 mph 34.5 mph N/A   Clear
11:35 AM 53.6 °F - 21.2 °F 28% 29.97 in 10.0 mi SSW 26.5 mph 40.3 mph N/A   Clear